THOR ABLESTAR DEB, 243

Orbit data source: Space-Track

THOR ABLESTAR DEB, 243 is space debris in LEO originally from a launch on Thu, 29 Jun 1961 UTC launched from the Air Force Eastern Test Range (AFETR). Debris objects in space refer to the collection of defunct objects orbiting the Earth. Examples of debris include non-operational satellites, rocket bodies, and fragments generated from explosions, collisions, or faulty payload assembly.

Loading next visibility...
Identifier
243, 1961-015BY
Orbit
LEO
Country
Flag of USUS
Related business
Manufacturer
Unknown
Mission
Spacecraft
Bus & Motor
Unknown
Mass
Unknown
Launch date (UTC)
1961-06-29 (64 years ago)
Launch vehicle
Unknown
Launch site
Air Force Eastern Test Range (AFETR)
Object type
Payload
Rocket body
Debris
Shape & HBR
Unknown
Radar Cross Section
Small (<0.1 m²)

Expand to show TLE details & history
Last TLE update: 15 hours ago

TLE from 15 hours ago
0 THOR ABLESTAR DEB
1 00243U 61015BY  25258.60502865  .00000813  00000-0  58983-3 0  9994
2 00243  66.4645 335.8552 0036158 264.1138  95.5822 14.01314001244816
Epoch: 2025-09-15T14:31Z
TLE epoch observation values (Epoch: 2025-09-15T14:31:14.475Z)
Latitude
0.00004°
Longitude
123.23762°
Altitude
893.959 km
Speed
7.404 km/s
True Right ascension
22h 23m 25s
True Declination
0° 00' 00"
Sunlit
Object was in full shadow at epoch
Visualization orbit readout
Latitude
Unknown
Longitude
Unknown
Altitude
Unknown
Speed
Unknown
Apparent Right ascension
Unknown
Apparent Declination
Unknown
Sunlit
N/A
Visualization observer readout
Local Sidereal Time
21:49:07
Azimuth
Unknown
Elevation
Unknown
Doppler factor
Unknown
Orbital elements
Apogee altitude
913.944 km
Perigee altitude
861.401 km
Semi-major axis
7,265.81 km
Eccentricity
0.00362
Inclination
66.4645°
RAAN
335.8552°
Arg. of periapsis
264.1138°
True anomaly
95.99439°
Mean anomaly
95.5822°
Eccentric anomaly
95.78831°
Mean motion
3.50443 °/min
Orbital period
102.73 mins
BSTAR
0.00058983
Loading maneuver chart data...
Computing Atmospheric mass density...

Documentation

Showing up to 5 results
|